Regional Weather Roundup
Issued by NWS Goodland, KS

Home | Current Version | Previous Version | Graphics & Text | Print | Product List | Glossary On
Versions: 1 2 3 4 5 6 7 8 9 10 11 12 13 14 15 16 17 18 19 20 21 22 23 24 25 26 27 28 29 30 31 32 33 34 35 36 37 38 39 40 41 42 43 44 45 46 47 48 49 50
000
ASUS43 KGLD 190508
RWRGLD

GOODLAND FORECAST AREA HOURLY WEATHER ROUNDUP
NATIONAL WEATHER SERVICE GOODLAND KS
1100 PM MDT THU SEP 18 2014

...OFFICIAL OBSERVATIONS...

CITY           SKY/WX    TMP DP  RH WIND       PRES   REMARKS
GOODLAND KS    CLEAR     69  55  60 S13       29.95R
HILL CITY KS   CLEAR     69  62  78 SE7       29.91R
IMPERIAL NEB   CLEAR     61  59  93 SE12      29.90F
MCCOOK NEB     FOG       59  59 100 CALM      29.89F VSB 1/4
AKRON CO       CLEAR     71  50  47 S16       29.95S
BURLINGTON CO  CLEAR     70  54  56 S16       29.98R
LIMON CO       CLEAR     65  49  56 S13       30.04S
$$

...UNOFFICIAL OBSERVATIONS...

CITY           SKY/WX    TMP DP  RH WIND       PRES   REMARKS
COLBY KS       CLEAR     70  61  73 S10       29.93S
GOVE KS          N/A     72  32  23 MISG        N/A
NORTON KS      CLEAR     68  61  77 SE7       29.89S
SHARON SPRINGS   N/A     69  58  67 S13         N/A
WAKEENEY KS      N/A     73  60  65 MISG        N/A
TRENTON NEB      N/A     61  32  33 SE10        N/A
YUMA CO          N/A     67  52  59 SW12        N/A
$$


USA.gov is the U.S. government's official web portal to all federal, state and local government web resources and services.